User: anonymous   Login
Location: Newark
(23.1300°N, 73.6109°E)
Time: 18:35:14
(UTC+00:00)
Language:

NOAA 18 - Orbit

View from above orbital plane
View from above orbital plane
View from above satellite
View from above satellite

Ground track
Ground track

The orbit data is extracted from the following two-line orbital elements,

1 28654U 05018A   21213.42292335  .00000050  00000-0  51142-4 0  9990
2 28654  98.9914 278.4606 0014886 151.9543 208.2434 14.12626478834880
Epoch (UTC): 01 August 2021 10:09:00
Eccentricity: 0.0014886
inclination: 98.9914°
perigee height: 839 km
apogee height: 861 km
right ascension of ascending node: 278.4606°
argument of perigee: 151.9543°
revolutions per day: 14.12626478
mean anomaly at epoch: 208.2434°
orbit number at epoch: 83488

The dashed part of the orbit path shows where the satellite is in the earth's shadow,  

DLR